Location: Newark
(48.6110°N, 6.2360°E)
Time: 04:37:57
(UTC+00:00)

Envisat - Visible Passes

Search period start: 13 December 2019 00:00
Search period end: 23 December 2019 00:00
Orbit: 764 x 766 km, 98.1° (Epoch: 12 December)

Date Brightness Start Highest point End Pass type
(mag) Time Alt. Az. Time Alt. Az. Time Alt. Az.
13 Dec 3.9 06:09:00 10° NNE 06:13:59 53° E 06:18:57 10° S visible
13 Dec 3.0 17:27:16 10° SSE 17:32:20 83° WSW 17:37:28 10° NNW visible
13 Dec 6.1 19:10:13 10° WSW 19:12:10 12° W 19:14:08 10° WNW visible
14 Dec 5.3 05:32:43 10° NE 05:36:58 26° E 05:41:12 10° SSE visible
14 Dec 3.2 16:50:46 10° SE 16:55:39 50° ENE 17:00:33 10° N visible
14 Dec 5.2 18:30:47 10° SSW 18:34:56 25° W 18:39:07 10° NW visible
15 Dec 6.1 04:57:31 10° ENE 04:59:45 13° E 05:01:57 10° ESE visible
15 Dec 3.1 06:34:24 10° NNE 06:39:32 87° ESE 06:44:38 10° SSW visible
15 Dec 3.9 16:14:59 10° ESE 16:19:09 26° ENE 16:23:19 10° N visible
15 Dec 3.9 17:52:58 10° S 17:57:54 50° W 18:02:52 10° NNW visible
16 Dec 4.4 05:57:48 10° NNE 06:02:40 42° E 06:07:28 10° S visible
16 Dec 2.9 17:15:59 10° SSE 17:21:04 81° ENE 17:26:11 10° NNW visible
16 Dec 5.9 18:57:50 10° WSW 19:00:44 15° W 19:03:39 10° NW visible
17 Dec 5.6 05:21:43 10° NE 05:25:35 21° E 05:29:24 10° SE visible
17 Dec 3.4 16:39:42 10° SE 16:44:25 41° ENE 16:49:11 10° N visible
17 Dec 4.8 18:19:05 10° SSW 18:23:33 30° W 18:28:03 10° NNW visible
18 Dec 3.4 06:23:08 10° NNE 06:28:15 71° ESE 06:33:19 10° S visible
18 Dec 3.5 17:41:33 10° S 17:46:34 62° WSW 17:51:38 10° NNW visible
19 Dec 4.8 05:46:40 10° NNE 05:51:18 34° E 05:55:55 10° SSE visible
19 Dec 2.9 17:04:47 10° SSE 17:09:48 66° ENE 17:14:51 10° N visible
19 Dec 5.6 18:45:46 10° SW 18:49:19 19° W 18:52:52 10° NW visible
20 Dec 5.9 05:10:50 10° NE 05:14:10 17° E 05:17:29 10° SE visible
20 Dec 3.6 16:28:42 10° SE 16:33:13 34° ENE 16:37:45 10° N visible
20 Dec 4.5 18:07:29 10° SSW 18:12:11 37° W 18:16:55 10° NNW visible
21 Dec 3.8 06:11:54 10° NNE 06:16:56 57° E 06:21:56 10° S visible
21 Dec 3.1 17:30:12 10° S 17:35:17 77° WSW 17:40:24 10° NNW visible
21 Dec 6.2 19:13:48 10° W 19:15:10 11° W 19:16:32 10° WNW visible
22 Dec 5.2 05:35:34 10° NE 05:39:56 28° E 05:44:17 10° SSE visible
22 Dec 3.1 16:53:38 10° SE 16:58:33 54° ENE 17:03:30 10° N visible
22 Dec 5.3 18:33:54 10° SW 18:37:53 23° W 18:41:56 10° NW visible
